Regional Weather Roundup
Issued by NWS

Home | Current Version | Previous Version | Graphics & Text | Print | Product List | Glossary Off
Versions: 1 2 3 4 5 6 7 8 9 10 11 12 13 14 15 16 17 18 19 20 21 22 23 24 25 26 27 28 29 30 31 32 33 34 35 36 37 38 39 40 41 42 43 44 45 46 47 48 49 50

000
ASUS43 KTOP 221708
RWRKS

WEATHER ROUNDUP FOR KANSAS
NATIONAL WEATHER SERVICE GOODLAND KS
1200 PM CDT TUE APR 22 2014

NOTE:  "FAIR" INDICATES FEW OR NO CLOUDS BELOW 12,000 FEET WITH NO
SIGNIFICANT WEATHER AND/OR OBSTRUCTIONS TO VISIBILITY.

KSZ001>006-013>018-027>032-041>047-221800-
NORTHWEST KANSAS

CITY           SKY/WX    TMP DP  RH WIND       PRES   REMARKS
GOODLAND       SUNNY     68  30  24 S35G43    30.01F
HAYS           MOSUNNY   68  32  26 SE20      30.11F
HILL CITY      CLOUDY    64  32  30 S17G23    30.09F
RUSSELL        SUNNY     70  30  22 SE15      30.11F
$$

KSZ061>065-074>080-084>089-221800-
SOUTHWEST KANSAS

CITY           SKY/WX    TMP DP  RH WIND       PRES   REMARKS
DODGE CITY     PTSUNNY   65  30  27 S20       30.14F
ELKHART          N/A     69  41  36 S22         N/A
GARDEN CITY    SUNNY     68  27  21 SE25G33   30.10F
GREAT BEND     SUNNY     70  30  23 SE16G23   30.12F
LIBERAL        SUNNY     70  34  26 S18G24    30.14F
PRATT          SUNNY     68  28  22 S13       30.15F
$$

KSZ066>073-081>083-090>101-221800-
SOUTHEAST KANSAS

CITY           SKY/WX    TMP DP  RH WIND       PRES   REMARKS
CHANUTE        SUNNY     65  36  34 NE8       30.13F
COFFEYVILLE    SUNNY     66  37  34 NE6       30.12F
HUTCHINSON     MOSUNNY   70  29  21 SE9       30.14F
MEDICINE LODGE   N/A     71  30  21 SE12      30.13F
NEWTON         SUNNY     68  30  24 SE9       30.17F
PARSONS        SUNNY     66  36  32 VRB7      30.14S
WICHITA INTL   MOSUNNY   70  33  25 E7        30.14F
WICHITA JABRA  SUNNY     69  33  26 VRB7      30.13F
WICHITA MCCONL SUNNY     69  30  23 E6        30.14F
WINFIELD       SUNNY     70  32  24 E7        30.15S
$$

KSZ007>012-019>026-033>040-048>060-102>105-221800-
NORTHEAST KANSAS

CITY           SKY/WX    TMP DP  RH WIND       PRES   REMARKS
CONCORDIA      SUNNY     65  31  28 SE12G20   30.13F
EMPORIA        SUNNY     63  34  33 E10       30.14S
LAWRENCE       SUNNY     63  31  30 E9        30.14F
MANHATTAN      SUNNY     63  32  31 VRB5      30.15F
OLATHE IND     SUNNY     62  31  31 N10       30.15S
OLATHE EXE     SUNNY     61  29  29 N6        30.13F
SALINA         SUNNY     68  33  27 SE12G18   30.14F
TOPEKA BILLARD SUNNY     64  33  31 NE5       30.14F
TOPEKA FORBES  SUNNY     62  32  32 E9        30.14F
$$



USA.gov is the U.S. government's official web portal to all federal, state and local government web resources and services.